LiveATC.Net - Listen to live air traffic control over the Internet!


ICAO: PAWS  IATA: IYS   Airport: Wasilla Airport
City: Wasilla   State/Province: Alaska
Country: United States   Continent: North America
PAWS METAR Weather: PAWS 190756Z AUTO 06010KT 10SM CLR 11/M02 A3022 RMK AO2 SLP238 T01061022
PAWS Flight Activity (FlightAware)
PAWS Webcam:  (Airport Webcams) 
PAWS Airport Info   (iFlightPlanner)
PAWS VFR Sectional Chart   (iFlightPlanner) 
PAWS IFR Low Chart   (iFlightPlanner) 

Matsu CTAF
Feed Status: UP   Listeners: 0
Listen in your browser - HTML5 player (in browser, HTML5)
Click here to listen with your own player (launches your MP3 player)
Archive Access: Matsu CTAF
FacilityFrequency
Birchwood CTAF123.000
Palmer CTAF123.600
Rural Matanuska Valley Traffic122.900
Wasilla CTAF122.800

NOTICE

Unauthorized use prohibited. See LiveATC.net Terms of Service


Airport/ARTCC Code
Frequency Search
(e.g., 124.400, 128.75)
Site-wide search
 


Browse Feeds
Top 50 Feeds
HF Oceanic Feeds
Coverage Map
Bad Weather Areas

LiveATC FAQ
Offer LiveATC feed
Contact LiveATC.net
Press Inquiries

LiveATC on iPhone
LiveATC on Android

Windows Phone
Windows 8/10

LiveATC Mobile
(Mobile browser)

ATC Audio Archives
Interesting Recordings

LiveATC Forums


Home Page
About LiveATC.net
Make a Donation
Terms of Use
Privacy Policy

Canadian Air Freqs

AIRMETs/SIGMETs

FAA Airport Status
Nat'l Airspace Status
Arrival Demand Charts


Server Software By:
Icecast.org
Liquidsoap